Location: Bay Ridge
(40.6340°N, 74.0146°W)
Time: 03:58:20
(UTC+00:00)

Cosmos 1500 Rocket - Pass Details

Date: 15 November 2019
Orbit: 602 x 632 km, 82.5° (Epoch: 06 December)

Event Time Altitude Azimuth Distance (km) Brightness Sun altitude
Rises 10:47:53 0° 178° (S) 2,910 7.2 -10.6°
Reaches altitude 10° 10:50:07 10° 175° (S) 2,007 6.5 -10.2°
Maximum altitude 10:54:31 63° 95° (E) 706 4.2 -9.4°
Drops below altitude 10° 10:58:56 10° 14° (NNE) 2,014 6.2 -8.6°
Sets 11:01:11 0° 12° (NNE) 2,923 7.0 -8.2°
